Fort Collins, CO

7:13 AM MST on December 12, 2019 (GMT -0700)
Fort Collins-Loveland Municipal

Weather History for KFNL - October, 2019

Change the Weather History Date:

Friday, October 18, 2019

  Actual Average Record
Temperature  
Mean Temperature 53 °F -  
Max Temperature 67 °F - 82 °F (2003)
Min Temperature 38 °F - 19 °F (2006)
Degree Days  
Heating Degree Days 12    
Month to date heating degree days 277  
Cooling Degree Days 0    
Month to date cooling degree days 0  
Growing Degree Days 4 (Base 50)    
Moisture  
Dew Point 22 °F    
Average Humidity 31    
Maximum Humidity 49    
Minimum Humidity 12    
Precipitation  
Precipitation 0.00 in - 0.17 in (2013)
Snow  
Snow 0.00 in - - ()
Snow Depth 0.00 in    
Sea Level Pressure  
Sea Level Pressure 29.58 in    
Wind  
Wind Speed 8 mph (North)    
Max Wind Speed 18 mph    
Max Gust Speed 25 mph    
Visibility 10 miles    
Events      
T = Trace of Precipitation, MM = Missing Value Source: NWS Daily Summary

Daily Weather History Graph

Daily Weather History Graph

Search for Another Location

Airport or City:

Astronomy

Oct. 18, 2019 Rise Set
Actual Time 7:13 AM MDT 6:15 PM MDT
Civil Twilight 6:46 AM MDT 6:43 PM MDT
Nautical Twilight 6:14 AM MDT 7:14 PM MDT
Astronomical Twilight 5:43 AM MDT 7:46 PM MDT
Moon 9:33 PM MDT (10/18) 11:50 AM MDT (10/18)
Length of Visible Light 11h 56m
Length of Day
11h 01m
Waning Gibbous, 78% of the Moon is Illuminated
Oct 18
Waning Gibbous
Oct 21
Last Quarter
Oct 27
New
Nov 4
First Quarter
Nov 12
Full

Hourly Weather History & Observations

Time (MDT) Temp. Windchill Dew Point Humidity Pressure Visibility Wind Dir Wind Speed Gust Speed Precip Events Conditions
12:56 AM 55.9 °F - 21.9 °F 27% 29.42 in 10.0 mi Variable 5.8 mph - N/A   Clear
1:56 AM 51.1 °F - 24.1 °F 35% 29.42 in 10.0 mi SSE 9.2 mph - N/A   Clear
2:56 AM 46.9 °F - 23.0 °F 39% 29.42 in 10.0 mi SSE 6.9 mph - N/A   Clear
3:56 AM 48.0 °F - 21.9 °F 36% 29.42 in 10.0 mi ESE 10.4 mph - N/A   Clear
4:56 AM 57.0 °F - 19.9 °F 24% 29.39 in 10.0 mi SE 12.7 mph - N/A   Clear
5:56 AM 48.9 °F - 21.9 °F 35% 29.42 in 10.0 mi Calm Calm - N/A   Clear
6:56 AM 44.1 °F 41.5 °F 26.1 °F 49% 29.47 in 10.0 mi ENE 4.6 mph - N/A   Clear
7:56 AM 48.0 °F - 25.0 °F 41% 29.53 in 10.0 mi ENE 4.6 mph - N/A   Clear
8:56 AM 54.0 °F - 33.1 °F 45% 29.55 in 10.0 mi North 8.1 mph - N/A   Clear
9:56 AM 57.0 °F - 33.1 °F 40% 29.53 in 10.0 mi NNE 12.7 mph - N/A   Clear
10:56 AM 62.1 °F - 33.1 °F 34% 29.54 in 10.0 mi North 15.0 mph - N/A   Clear
11:56 AM 62.1 °F - 32.0 °F 32% 29.56 in 10.0 mi WNW 9.2 mph - N/A   Partly Cloudy
12:56 PM 64.0 °F - 33.1 °F 31% 29.54 in 10.0 mi WSW 8.1 mph - N/A   Clear
1:56 PM 64.9 °F - 32.0 °F 29% 29.55 in 10.0 mi South 12.7 mph - N/A   Mostly Cloudy
2:56 PM 64.0 °F - 25.0 °F 23% 29.56 in 9.0 mi WNW 16.1 mph 25.3 mph N/A   Scattered Clouds
3:56 PM 63.0 °F - 10.0 °F 13% 29.60 in 10.0 mi NNW 18.4 mph - N/A   Clear
4:56 PM 62.1 °F - 9.0 °F 12% 29.61 in 10.0 mi North 18.4 mph 25.3 mph N/A   Clear
5:56 PM 57.0 °F - 12.9 °F 18% 29.68 in 10.0 mi North 10.4 mph - N/A   Clear
6:56 PM 48.0 °F - 15.1 °F 27% 29.76 in 10.0 mi North 9.2 mph - N/A   Clear
7:56 PM 48.0 °F - 16.0 °F 28% 29.78 in 10.0 mi NNE 9.2 mph - N/A   Clear
8:56 PM 45.0 °F 40.1 °F 17.1 °F 33% 29.79 in 10.0 mi North 9.2 mph - N/A   Clear
9:56 PM 44.1 °F 41.5 °F 12.0 °F 27% 29.81 in 10.0 mi NW 4.6 mph - N/A   Clear
10:56 PM 46.9 °F - 18.0 °F 32% 29.80 in 10.0 mi Calm Calm - N/A   Clear
11:56 PM 42.1 °F 40.2 °F 21.0 °F 43% 29.83 in 10.0 mi Variable 3.5 mph - N/A   Clear